Time,TemperatureF,DewpointF,PressureIn,WindDirection,WindDirectionDegrees,WindSpeedMPH,WindSpeedGustMPH,Humidity,HourlyPrecipIn,Conditions,Clouds,dailyrainin,SoftwareType,DateUTC
2013-02-26 00:01:00,59.2,49.5,29.41,SW,225,2.5,10.5,70,0.00,,,0.00,WUHU216HW,2013-02-26 06:01:00,
2013-02-26 00:06:00,59.0,48.9,29.42,SW,225,6.7,6.7,69,0.00,,,0.00,WUHU216HW,2013-02-26 06:06:00,
2013-02-26 00:11:00,58.9,48.3,29.42,WSW,248,6.3,6.9,68,0.00,,,0.00,WUHU216HW,2013-02-26 06:11:00,
2013-02-26 00:16:00,58.9,48.7,29.42,SSW,203,3.1,6.9,69,0.00,,,0.00,WUHU216HW,2013-02-26 06:16:00,
2013-02-26 00:21:00,58.7,48.5,29.42,SSW,203,3.4,6.3,69,0.00,,,0.00,WUHU216HW,2013-02-26 06:21:00,
2013-02-26 00:26:00,58.5,47.5,29.42,SSW,203,9.2,9.2,67,0.00,,,0.00,WUHU216HW,2013-02-26 06:26:00,
2013-02-26 00:31:00,58.3,47.0,29.42,West,270,6.9,9.2,66,0.00,,,0.00,WUHU216HW,2013-02-26 06:31:00,
2013-02-26 00:36:00,58.3,47.3,29.42,SW,225,6.5,9.2,67,0.00,,,0.00,WUHU216HW,2013-02-26 06:36:00,
2013-02-26 00:41:00,58.1,46.4,29.42,SW,225,4.3,7.2,65,0.00,,,0.00,WUHU216HW,2013-02-26 06:41:00,
2013-02-26 00:46:00,58.0,47.1,29.43,WSW,248,4.3,6.7,67,0.00,,,0.00,WUHU216HW,2013-02-26 06:46:00,
2013-02-26 00:51:00,57.8,46.4,29.43,SSW,203,7.4,7.4,66,0.00,,,0.00,WUHU216HW,2013-02-26 06:51:00,
2013-02-26 00:56:00,57.4,46.1,29.43,SW,225,4.7,8.1,66,0.00,,,0.00,WUHU216HW,2013-02-26 06:56:00,
2013-02-26 01:01:00,57.2,45.2,29.44,SSW,203,5.8,8.1,64,0.00,,,0.00,WUHU216HW,2013-02-26 07:01:00,
2013-02-26 01:06:00,56.9,45.2,29.44,West,270,8.5,8.5,65,0.00,,,0.00,WUHU216HW,2013-02-26 07:06:00,
2013-02-26 01:11:00,56.7,44.2,29.44,West,270,9.4,10.3,63,0.00,,,0.00,WUHU216HW,2013-02-26 07:11:00,
2013-02-26 01:16:00,56.5,44.0,29.45,WSW,248,7.2,11.4,63,0.00,,,0.00,WUHU216HW,2013-02-26 07:16:00,
2013-02-26 01:21:00,56.5,44.0,29.44,SW,225,8.5,11.4,63,0.00,,,0.00,WUHU216HW,2013-02-26 07:21:00,
2013-02-26 01:26:00,56.2,42.5,29.45,SW,225,9.2,9.2,60,0.00,,,0.00,WUHU216HW,2013-02-26 07:26:00,
2013-02-26 01:31:00,55.8,42.6,29.45,SW,225,4.7,9.4,61,0.00,,,0.00,WUHU216HW,2013-02-26 07:31:00,
2013-02-26 01:36:00,55.8,42.1,29.45,SW,225,4.9,9.4,60,0.00,,,0.00,WUHU216HW,2013-02-26 07:36:00,
2013-02-26 01:41:00,55.6,42.8,29.46,WSW,248,4.0,8.5,62,0.00,,,0.00,WUHU216HW,2013-02-26 07:41:00,
2013-02-26 01:46:00,55.1,42.7,29.45,SW,225,4.5,5.4,63,0.00,,,0.00,WUHU216HW,2013-02-26 07:46:00,
2013-02-26 01:51:00,55.1,42.7,29.46,SW,225,5.1,5.8,63,0.00,,,0.00,WUHU216HW,2013-02-26 07:51:00,
2013-02-26 01:56:00,54.7,42.0,29.47,WSW,248,8.9,9.2,62,0.00,,,0.00,WUHU216HW,2013-02-26 07:56:00,
2013-02-26 02:01:00,54.5,41.8,29.47,WSW,248,6.5,10.1,62,0.00,,,0.00,WUHU216HW,2013-02-26 08:01:00,
2013-02-26 02:06:00,54.4,41.2,29.46,WSW,248,5.1,10.1,61,0.00,,,0.00,WUHU216HW,2013-02-26 08:06:00,
2013-02-26 02:11:00,54.2,40.6,29.46,SSW,203,6.9,15.7,60,0.00,,,0.00,WUHU216HW,2013-02-26 08:11:00,
2013-02-26 02:16:00,54.0,40.5,29.46,SW,225,4.3,15.7,60,0.00,,,0.00,WUHU216HW,2013-02-26 08:16:00,
2013-02-26 02:21:00,53.6,41.0,29.46,WSW,248,3.4,11.2,62,0.00,,,0.00,WUHU216HW,2013-02-26 08:21:00,
2013-02-26 02:26:00,53.6,40.1,29.46,SSW,203,6.9,11.2,60,0.00,,,0.00,WUHU216HW,2013-02-26 08:26:00,
2013-02-26 02:31:00,53.3,39.8,29.47,SW,225,4.7,11.0,60,0.00,,,0.00,WUHU216HW,2013-02-26 08:31:00,
2013-02-26 02:36:00,53.1,39.6,29.47,NW,315,6.0,9.8,60,0.00,,,0.00,WUHU216HW,2013-02-26 08:36:00,
2013-02-26 02:41:00,52.9,39.8,29.46,SW,225,8.1,10.3,61,0.00,,,0.00,WUHU216HW,2013-02-26 08:41:00,
2013-02-26 02:46:00,52.9,40.2,29.46,WSW,248,6.5,10.3,62,0.00,,,0.00,WUHU216HW,2013-02-26 08:46:00,
2013-02-26 02:51:00,52.6,39.9,29.46,SSW,203,6.5,8.5,62,0.00,,,0.00,WUHU216HW,2013-02-26 08:51:00,
2013-02-26 02:56:00,52.4,40.5,29.47,WSW,248,5.4,8.5,64,0.00,,,0.00,WUHU216HW,2013-02-26 08:56:00,
2013-02-26 03:01:00,52.2,40.3,29.47,SW,225,3.4,8.3,64,0.00,,,0.00,WUHU216HW,2013-02-26 09:01:00,
2013-02-26 03:06:00,52.2,40.3,29.48,WSW,248,2.5,7.6,64,0.00,,,0.00,WUHU216HW,2013-02-26 09:06:00,
2013-02-26 03:11:00,52.0,40.1,29.47,WSW,248,5.6,7.6,64,0.00,,,0.00,WUHU216HW,2013-02-26 09:11:00,
2013-02-26 03:16:00,51.8,40.9,29.47,West,270,2.2,6.7,66,0.00,,,0.00,WUHU216HW,2013-02-26 09:16:00,
2013-02-26 03:21:00,51.7,40.7,29.48,SW,225,4.0,6.5,66,0.00,,,0.00,WUHU216HW,2013-02-26 09:21:00,
2013-02-26 03:26:00,51.5,40.9,29.48,North,0,1.3,5.8,67,0.00,,,0.00,WUHU216HW,2013-02-26 09:26:00,
2013-02-26 03:31:00,51.3,40.7,29.48,WSW,248,6.5,9.2,67,0.00,,,0.00,WUHU216HW,2013-02-26 09:31:00,
2013-02-26 03:36:00,51.1,39.7,29.48,WNW,293,10.5,10.5,65,0.00,,,0.00,WUHU216HW,2013-02-26 09:36:00,
2013-02-26 03:41:00,50.9,39.5,29.49,WSW,248,6.0,10.5,65,0.00,,,0.00,WUHU216HW,2013-02-26 09:41:00,
2013-02-26 03:46:00,50.8,39.4,29.49,WSW,248,6.3,10.5,65,0.00,,,0.00,WUHU216HW,2013-02-26 09:46:00,
2013-02-26 03:51:00,50.8,39.4,29.48,WSW,248,4.7,8.9,65,0.00,,,0.00,WUHU216HW,2013-02-26 09:51:00,
2013-02-26 03:56:00,50.6,39.6,29.49,WSW,248,6.3,8.9,66,0.00,,,0.00,WUHU216HW,2013-02-26 09:56:00,
2013-02-26 04:01:00,50.4,39.1,29.49,WNW,293,3.4,7.6,65,0.00,,,0.00,WUHU216HW,2013-02-26 10:01:00,
2013-02-26 04:06:00,50.2,39.2,29.49,WSW,248,4.0,9.8,66,0.00,,,0.00,WUHU216HW,2013-02-26 10:06:00,
2013-02-26 04:11:00,50.0,39.1,29.49,WSW,248,4.0,9.8,66,0.00,,,0.00,WUHU216HW,2013-02-26 10:11:00,
2013-02-26 04:16:00,50.0,39.1,29.49,WSW,248,6.3,7.8,66,0.00,,,0.00,WUHU216HW,2013-02-26 10:16:00,
2013-02-26 04:21:00,49.9,38.9,29.49,SSW,203,6.3,9.2,66,0.00,,,0.00,WUHU216HW,2013-02-26 10:21:00,
2013-02-26 04:26:00,49.7,38.3,29.50,WSW,248,7.8,9.2,65,0.00,,,0.00,WUHU216HW,2013-02-26 10:26:00,
2013-02-26 04:31:00,49.7,38.3,29.50,WSW,248,7.8,8.9,65,0.00,,,0.00,WUHU216HW,2013-02-26 10:31:00,
2013-02-26 04:36:00,49.5,37.8,29.50,SW,225,5.1,9.4,64,0.00,,,0.00,WUHU216HW,2013-02-26 10:36:00,
2013-02-26 04:41:00,49.3,38.0,29.50,WSW,248,3.4,11.2,65,0.00,,,0.00,WUHU216HW,2013-02-26 10:41:00,
2013-02-26 04:46:00,49.3,38.0,29.50,SW,225,4.5,11.2,65,0.00,,,0.00,WUHU216HW,2013-02-26 10:46:00,
2013-02-26 04:51:00,49.1,37.8,29.51,WSW,248,6.0,7.6,65,0.00,,,0.00,WUHU216HW,2013-02-26 10:51:00,
2013-02-26 04:56:00,49.0,38.1,29.51,WSW,248,4.9,8.5,66,0.00,,,0.00,WUHU216HW,2013-02-26 10:56:00,
2013-02-26 05:01:00,48.8,37.9,29.52,SSW,203,8.3,9.8,66,0.00,,,0.00,WUHU216HW,2013-02-26 11:01:00,
2013-02-26 05:06:00,48.6,37.7,29.52,SW,225,4.5,10.1,66,0.00,,,0.00,WUHU216HW,2013-02-26 11:06:00,
2013-02-26 05:11:00,48.6,37.7,29.52,SW,225,6.0,10.5,66,0.00,,,0.00,WUHU216HW,2013-02-26 11:11:00,
2013-02-26 05:16:00,48.4,37.9,29.52,WNW,293,3.4,11.2,67,0.00,,,0.00,WUHU216HW,2013-02-26 11:16:00,
2013-02-26 05:21:00,48.2,37.7,29.53,West,270,8.5,11.2,67,0.00,,,0.00,WUHU216HW,2013-02-26 11:21:00,
2013-02-26 05:26:00,48.2,37.7,29.53,SW,225,7.6,12.1,67,0.00,,,0.00,WUHU216HW,2013-02-26 11:26:00,
2013-02-26 05:31:00,48.2,37.4,29.53,WSW,248,5.4,12.1,66,0.00,,,0.00,WUHU216HW,2013-02-26 11:31:00,
2013-02-26 05:36:00,48.2,38.2,29.54,SW,225,4.7,9.2,68,0.00,,,0.00,WUHU216HW,2013-02-26 11:36:00,
2013-02-26 05:41:00,48.1,38.0,29.54,SW,225,4.0,9.2,68,0.00,,,0.00,WUHU216HW,2013-02-26 11:41:00,
2013-02-26 05:46:00,47.9,37.8,29.54,SW,225,6.9,7.6,68,0.00,,,0.00,WUHU216HW,2013-02-26 11:46:00,
2013-02-26 05:51:00,47.9,37.8,29.55,SW,225,6.9,7.6,68,0.00,,,0.00,WUHU216HW,2013-02-26 11:51:00,
2013-02-26 05:56:00,47.7,37.6,29.55,WSW,248,3.6,6.9,68,0.00,,,0.00,WUHU216HW,2013-02-26 11:56:00,
2013-02-26 06:01:00,47.5,37.9,29.55,WSW,248,5.1,11.0,69,0.00,,,0.00,WUHU216HW,2013-02-26 12:01:00,
2013-02-26 06:06:00,47.5,37.4,29.56,WSW,248,8.3,11.0,68,0.00,,,0.00,WUHU216HW,2013-02-26 12:06:00,
2013-02-26 06:11:00,47.5,37.4,29.57,WSW,248,5.6,10.3,68,0.00,,,0.00,WUHU216HW,2013-02-26 12:11:00,
2013-02-26 06:16:00,47.5,37.4,29.57,SW,225,6.5,9.6,68,0.00,,,0.00,WUHU216HW,2013-02-26 12:16:00,
2013-02-26 06:21:00,47.3,37.7,29.57,WSW,248,6.9,7.8,69,0.00,,,0.00,WUHU216HW,2013-02-26 12:21:00,
2013-02-26 06:26:00,47.3,37.7,29.57,WSW,248,4.5,8.1,69,0.00,,,0.00,WUHU216HW,2013-02-26 12:26:00,
2013-02-26 06:31:00,47.2,37.5,29.58,WSW,248,4.0,8.1,69,0.00,,,0.00,WUHU216HW,2013-02-26 12:31:00,
2013-02-26 06:36:00,47.2,37.9,29.58,WSW,248,2.5,6.7,70,0.00,,,0.00,WUHU216HW,2013-02-26 12:36:00,
2013-02-26 06:41:00,47.2,37.9,29.58,WSW,248,6.9,6.9,70,0.00,,,0.00,WUHU216HW,2013-02-26 12:41:00,
2013-02-26 06:46:00,47.0,37.7,29.58,WSW,248,5.4,6.9,70,0.00,,,0.00,WUHU216HW,2013-02-26 12:46:00,
2013-02-26 06:51:00,47.0,37.7,29.58,WSW,248,5.6,6.9,70,0.00,,,0.00,WUHU216HW,2013-02-26 12:51:00,
2013-02-26 06:56:00,47.2,37.9,29.58,WSW,248,3.1,9.8,70,0.00,,,0.00,WUHU216HW,2013-02-26 12:56:00,
2013-02-26 07:01:00,47.2,38.3,29.58,WSW,248,2.0,9.8,71,0.00,,,0.00,WUHU216HW,2013-02-26 13:01:00,
2013-02-26 07:06:00,47.9,38.5,29.59,SW,225,6.3,8.5,70,0.00,,,0.00,WUHU216HW,2013-02-26 13:06:00,
2013-02-26 07:11:00,48.6,39.2,29.59,SW,225,5.8,6.3,70,0.00,,,0.00,WUHU216HW,2013-02-26 13:11:00,
2013-02-26 07:16:00,49.9,39.7,29.59,South,180,4.0,7.6,68,0.00,,,0.00,WUHU216HW,2013-02-26 13:16:00,
2013-02-26 07:21:00,50.6,40.1,29.58,WSW,248,4.7,7.6,67,0.00,,,0.00,WUHU216HW,2013-02-26 13:21:00,
2013-02-26 07:26:00,51.5,40.9,29.59,North,0,1.8,6.3,67,0.00,,,0.00,WUHU216HW,2013-02-26 13:26:00,
2013-02-26 07:31:00,51.8,40.4,29.59,SW,225,3.1,6.3,65,0.00,,,0.00,WUHU216HW,2013-02-26 13:31:00,
2013-02-26 07:36:00,53.3,41.8,29.59,WSW,248,5.4,5.8,65,0.00,,,0.00,WUHU216HW,2013-02-26 13:36:00,
2013-02-26 07:41:00,53.8,40.3,29.59,SW,225,7.4,10.5,60,0.00,,,0.00,WUHU216HW,2013-02-26 13:41:00,
2013-02-26 07:46:00,54.2,41.1,29.60,WSW,248,6.0,10.5,61,0.00,,,0.00,WUHU216HW,2013-02-26 13:46:00,
2013-02-26 07:51:00,54.5,41.0,29.60,SW,225,6.7,8.1,60,0.00,,,0.00,WUHU216HW,2013-02-26 13:51:00,
2013-02-26 07:56:00,54.5,41.0,29.60,SW,225,8.5,9.2,60,0.00,,,0.00,WUHU216HW,2013-02-26 13:56:00,
2013-02-26 08:01:00,53.8,40.3,29.60,West,270,5.8,9.2,60,0.00,,,0.00,WUHU216HW,2013-02-26 14:01:00,
2013-02-26 08:06:00,53.3,40.1,29.60,WSW,248,4.0,9.2,61,0.00,,,0.00,WUHU216HW,2013-02-26 14:06:00,
2013-02-26 08:11:00,52.6,39.5,29.60,SW,225,4.7,14.3,61,0.00,,,0.00,WUHU216HW,2013-02-26 14:11:00,
2013-02-26 08:16:00,52.4,39.7,29.61,WSW,248,2.5,14.3,62,0.00,,,0.00,WUHU216HW,2013-02-26 14:16:00,
2013-02-26 08:21:00,52.6,40.3,29.62,West,270,4.0,9.4,63,0.00,,,0.00,WUHU216HW,2013-02-26 14:21:00,
2013-02-26 08:26:00,52.6,39.5,29.62,SW,225,6.5,9.4,61,0.00,,,0.00,WUHU216HW,2013-02-26 14:26:00,
2013-02-26 08:31:00,52.4,39.3,29.63,WSW,248,7.4,8.9,61,0.00,,,0.00,WUHU216HW,2013-02-26 14:31:00,
2013-02-26 08:36:00,52.4,39.7,29.63,SW,225,6.3,8.9,62,0.00,,,0.00,WUHU216HW,2013-02-26 14:36:00,
2013-02-26 08:41:00,52.6,39.5,29.64,SSW,203,9.2,11.6,61,0.00,,,0.00,WUHU216HW,2013-02-26 14:41:00,
2013-02-26 08:46:00,52.6,39.9,29.64,WSW,248,5.1,11.6,62,0.00,,,0.00,WUHU216HW,2013-02-26 14:46:00,
2013-02-26 08:52:00,52.6,39.5,29.65,WSW,248,4.5,10.3,61,0.00,,,0.00,WUHU216HW,2013-02-26 14:52:00,
2013-02-26 08:57:00,52.7,38.8,29.65,SW,225,8.5,10.1,59,0.00,,,0.00,WUHU216HW,2013-02-26 14:57:00,
2013-02-26 09:01:00,52.9,39.8,29.65,WSW,248,6.5,10.1,61,0.00,,,0.00,WUHU216HW,2013-02-26 15:01:00,
2013-02-26 09:07:00,53.1,39.2,29.65,WSW,248,7.6,9.6,59,0.00,,,0.00,WUHU216HW,2013-02-26 15:07:00,
2013-02-26 09:11:00,53.1,39.2,29.65,SW,225,6.7,11.0,59,0.00,,,0.00,WUHU216HW,2013-02-26 15:11:00,
2013-02-26 09:16:00,52.9,39.0,29.65,West,270,6.3,11.0,59,0.00,,,0.00,WUHU216HW,2013-02-26 15:16:00,
2013-02-26 09:21:00,53.1,39.6,29.66,SW,225,3.8,8.5,60,0.00,,,0.00,WUHU216HW,2013-02-26 15:21:00,
2013-02-26 09:26:00,53.5,39.5,29.66,WSW,248,8.7,10.7,59,0.00,,,0.00,WUHU216HW,2013-02-26 15:26:00,
2013-02-26 09:31:00,53.6,39.3,29.66,West,270,6.3,10.7,58,0.00,,,0.00,WUHU216HW,2013-02-26 15:31:00,
2013-02-26 09:36:00,53.8,39.9,29.66,WSW,248,2.0,10.3,59,0.00,,,0.00,WUHU216HW,2013-02-26 15:36:00,
2013-02-26 09:41:00,54.4,40.3,29.66,WSW,248,5.1,9.2,59,0.00,,,0.00,WUHU216HW,2013-02-26 15:41:00,
2013-02-26 09:46:00,54.7,40.7,29.66,NW,315,5.4,7.4,59,0.00,,,0.00,WUHU216HW,2013-02-26 15:46:00,
2013-02-26 09:51:00,54.9,39.9,29.66,SW,225,7.4,8.7,57,0.00,,,0.00,WUHU216HW,2013-02-26 15:51:00,
2013-02-26 09:56:00,55.3,41.1,29.66,SSW,203,5.8,11.0,59,0.00,,,0.00,WUHU216HW,2013-02-26 15:56:00,
2013-02-26 10:01:00,55.6,40.1,29.66,SSW,203,5.8,11.0,56,0.00,,,0.00,WUHU216HW,2013-02-26 16:01:00,
2013-02-26 10:06:00,55.8,40.7,29.66,SW,225,6.5,9.2,57,0.00,,,0.00,WUHU216HW,2013-02-26 16:06:00,
2013-02-26 10:11:00,56.0,40.4,29.66,SW,225,2.9,9.2,56,0.00,,,0.00,WUHU216HW,2013-02-26 16:11:00,
2013-02-26 10:16:00,56.2,41.0,29.66,West,270,6.3,10.5,57,0.00,,,0.00,WUHU216HW,2013-02-26 16:16:00,
2013-02-26 10:21:00,56.3,40.8,29.66,SW,225,6.9,10.5,56,0.00,,,0.00,WUHU216HW,2013-02-26 16:21:00,
2013-02-26 10:26:00,56.5,41.0,29.66,West,270,6.7,7.8,56,0.00,,,0.00,WUHU216HW,2013-02-26 16:26:00,
2013-02-26 10:31:00,56.9,40.9,29.66,WSW,248,6.0,8.5,55,0.00,,,0.00,WUHU216HW,2013-02-26 16:31:00,
2013-02-26 10:36:00,57.2,41.2,29.66,WSW,248,7.6,8.5,55,0.00,,,0.00,WUHU216HW,2013-02-26 16:36:00,
2013-02-26 10:41:00,57.2,41.2,29.66,SW,225,3.8,11.4,55,0.00,,,0.00,WUHU216HW,2013-02-26 16:41:00,
2013-02-26 10:46:00,57.6,41.0,29.66,SW,225,5.4,11.4,54,0.00,,,0.00,WUHU216HW,2013-02-26 16:46:00,
2013-02-26 10:51:00,57.8,41.7,29.67,WSW,248,5.1,9.8,55,0.00,,,0.00,WUHU216HW,2013-02-26 16:51:00,
2013-02-26 10:56:00,58.1,42.5,29.67,West,270,6.0,7.2,56,0.00,,,0.00,WUHU216HW,2013-02-26 16:56:00,
2013-02-26 11:01:00,58.3,41.2,29.66,SSW,203,10.5,10.5,53,0.00,,,0.00,WUHU216HW,2013-02-26 17:01:00,
2013-02-26 11:06:00,58.3,41.2,29.66,SW,225,6.0,10.5,53,0.00,,,0.00,WUHU216HW,2013-02-26 17:06:00,
2013-02-26 11:11:00,58.3,41.8,29.66,West,270,6.5,10.5,54,0.00,,,0.00,WUHU216HW,2013-02-26 17:11:00,
2013-02-26 11:16:00,58.7,43.0,29.66,SW,225,4.9,9.4,56,0.00,,,0.00,WUHU216HW,2013-02-26 17:16:00,
2013-02-26 11:21:00,58.9,41.8,29.66,South,180,6.3,9.6,53,0.00,,,0.00,WUHU216HW,2013-02-26 17:21:00,
2013-02-26 11:26:00,59.0,42.0,29.66,SW,225,5.1,9.6,53,0.00,,,0.00,WUHU216HW,2013-02-26 17:26:00,
2013-02-26 11:31:00,59.2,42.0,29.66,West,270,4.9,7.6,53,0.00,,,0.00,WUHU216HW,2013-02-26 17:31:00,
2013-02-26 11:36:00,59.4,42.8,29.66,WSW,248,6.3,7.6,54,0.00,,,0.00,WUHU216HW,2013-02-26 17:36:00,
2013-02-26 11:41:00,59.8,43.0,29.66,SSW,203,6.0,7.6,54,0.00,,,0.00,WUHU216HW,2013-02-26 17:41:00,
2013-02-26 11:46:00,59.9,42.3,29.66,SW,225,4.9,8.5,52,0.00,,,0.00,WUHU216HW,2013-02-26 17:46:00,
2013-02-26 11:51:00,60.1,42.9,29.66,SSW,203,5.1,8.5,53,0.00,,,0.00,WUHU216HW,2013-02-26 17:51:00,
2013-02-26 11:56:00,60.3,42.6,29.66,WSW,248,7.6,7.6,52,0.00,,,0.00,WUHU216HW,2013-02-26 17:56:00,
2013-02-26 12:01:00,60.5,42.8,29.66,SSW,203,6.9,8.7,52,0.00,,,0.00,WUHU216HW,2013-02-26 18:01:00,
2013-02-26 12:06:00,60.8,42.6,29.66,SW,225,8.3,8.7,51,0.00,,,0.00,WUHU216HW,2013-02-26 18:06:00,
2013-02-26 12:11:00,60.8,42.6,29.66,SE,135,4.5,8.3,51,0.00,,,0.00,WUHU216HW,2013-02-26 18:11:00,
2013-02-26 12:16:00,60.8,42.6,29.66,SW,225,5.4,8.3,51,0.00,,,0.00,WUHU216HW,2013-02-26 18:16:00,
2013-02-26 12:21:00,61.0,43.3,29.66,SW,225,6.9,8.7,52,0.00,,,0.00,WUHU216HW,2013-02-26 18:21:00,
2013-02-26 12:26:00,61.2,42.9,29.66,WSW,248,3.4,9.6,51,0.00,,,0.00,WUHU216HW,2013-02-26 18:26:00,
2013-02-26 12:31:00,61.4,42.6,29.66,WSW,248,6.9,9.6,50,0.00,,,0.00,WUHU216HW,2013-02-26 18:31:00,
2013-02-26 12:36:00,61.4,43.1,29.65,WSW,248,8.9,9.4,51,0.00,,,0.00,WUHU216HW,2013-02-26 18:36:00,
2013-02-26 12:41:00,61.6,42.8,29.65,WSW,248,2.5,9.4,50,0.00,,,0.00,WUHU216HW,2013-02-26 18:41:00,
2013-02-26 12:46:00,61.6,43.3,29.65,SSE,158,2.0,8.9,51,0.00,,,0.00,WUHU216HW,2013-02-26 18:46:00,
2013-02-26 12:51:00,61.7,43.4,29.65,SW,225,7.6,8.5,51,0.00,,,0.00,WUHU216HW,2013-02-26 18:51:00,
2013-02-26 12:56:00,61.7,42.9,29.64,SW,225,9.2,9.2,50,0.00,,,0.00,WUHU216HW,2013-02-26 18:56:00,
2013-02-26 13:02:00,61.6,43.3,29.64,WSW,248,4.5,9.2,51,0.00,,,0.00,WUHU216HW,2013-02-26 19:02:00,
2013-02-26 13:07:00,61.6,43.3,29.64,SSW,203,3.6,8.7,51,0.00,,,0.00,WUHU216HW,2013-02-26 19:07:00,
2013-02-26 13:12:00,61.7,43.4,29.64,WSW,248,6.0,8.3,51,0.00,,,0.00,WUHU216HW,2013-02-26 19:12:00,
2013-02-26 13:17:00,61.9,43.1,29.63,SSW,203,5.4,7.6,50,0.00,,,0.00,WUHU216HW,2013-02-26 19:17:00,
2013-02-26 13:22:00,62.1,43.3,29.63,SW,225,6.0,7.6,50,0.00,,,0.00,WUHU216HW,2013-02-26 19:22:00,
2013-02-26 13:27:00,62.3,43.4,29.62,West,270,6.5,6.5,50,0.00,,,0.00,WUHU216HW,2013-02-26 19:27:00,
2013-02-26 13:32:00,62.5,43.0,29.62,SW,225,4.0,6.5,49,0.00,,,0.00,WUHU216HW,2013-02-26 19:32:00,
2013-02-26 13:37:00,62.3,42.8,29.62,WSW,248,7.2,8.5,49,0.00,,,0.00,WUHU216HW,2013-02-26 19:37:00,
2013-02-26 13:42:00,62.5,43.0,29.62,SW,225,4.3,8.5,49,0.00,,,0.00,WUHU216HW,2013-02-26 19:42:00,
2013-02-26 13:47:00,62.3,43.4,29.62,SSE,158,3.4,7.2,50,0.00,,,0.00,WUHU216HW,2013-02-26 19:47:00,
2013-02-26 13:52:00,62.3,43.4,29.62,SSW,203,2.0,5.8,50,0.00,,,0.00,WUHU216HW,2013-02-26 19:52:00,
2013-02-26 13:57:00,62.5,43.0,29.62,SW,225,5.8,7.6,49,0.00,,,0.00,WUHU216HW,2013-02-26 19:57:00,
2013-02-26 14:02:00,62.3,41.7,29.62,West,270,5.1,7.6,47,0.00,,,0.00,WUHU216HW,2013-02-26 20:02:00,
2013-02-26 14:06:00,61.9,42.5,29.62,WSW,248,4.7,5.8,49,0.00,,,0.00,WUHU216HW,2013-02-26 20:06:00,
2013-02-26 14:12:00,61.7,42.9,29.62,SW,225,7.4,7.4,50,0.00,,,0.00,WUHU216HW,2013-02-26 20:12:00,
2013-02-26 14:17:00,61.9,43.6,29.63,WSW,248,5.4,8.1,51,0.00,,,0.00,WUHU216HW,2013-02-26 20:17:00,
2013-02-26 14:22:00,61.7,43.4,29.62,SSW,203,4.5,8.1,51,0.00,,,0.00,WUHU216HW,2013-02-26 20:22:00,
2013-02-26 14:27:00,61.7,43.4,29.62,WSW,248,5.1,7.4,51,0.00,,,0.00,WUHU216HW,2013-02-26 20:27:00,
2013-02-26 14:32:00,61.7,43.4,29.63,SW,225,3.8,7.4,51,0.00,,,0.00,WUHU216HW,2013-02-26 20:32:00,
2013-02-26 14:37:00,61.7,42.9,29.62,WSW,248,4.0,6.3,50,0.00,,,0.00,WUHU216HW,2013-02-26 20:37:00,
2013-02-26 14:42:00,61.7,43.4,29.62,SSW,203,4.3,6.3,51,0.00,,,0.00,WUHU216HW,2013-02-26 20:42:00,
2013-02-26 14:47:00,61.7,43.4,29.62,SW,225,2.5,5.6,51,0.00,,,0.00,WUHU216HW,2013-02-26 20:47:00,
2013-02-26 14:52:00,61.6,43.3,29.63,WSW,248,5.4,6.3,51,0.00,,,0.00,WUHU216HW,2013-02-26 20:52:00,
2013-02-26 14:57:00,61.4,43.6,29.63,SSE,158,3.4,6.3,52,0.00,,,0.00,WUHU216HW,2013-02-26 20:57:00,
2013-02-26 15:02:00,61.2,43.9,29.63,SW,225,2.2,5.4,53,0.00,,,0.00,WUHU216HW,2013-02-26 21:02:00,
2013-02-26 15:07:00,61.2,43.4,29.63,SW,225,5.4,7.6,52,0.00,,,0.00,WUHU216HW,2013-02-26 21:07:00,
2013-02-26 15:12:00,60.8,43.1,29.63,WSW,248,4.3,7.6,52,0.00,,,0.00,WUHU216HW,2013-02-26 21:12:00,
2013-02-26 15:17:00,60.7,42.9,29.63,SSW,203,6.0,8.9,52,0.00,,,0.00,WUHU216HW,2013-02-26 21:17:00,
2013-02-26 15:22:00,60.7,43.4,29.63,SSW,203,7.6,8.9,53,0.00,,,0.00,WUHU216HW,2013-02-26 21:22:00,
2013-02-26 15:27:00,60.5,42.8,29.64,SW,225,7.6,7.6,52,0.00,,,0.00,WUHU216HW,2013-02-26 21:27:00,
2013-02-26 15:32:00,60.7,42.9,29.64,WSW,248,3.4,7.6,52,0.00,,,0.00,WUHU216HW,2013-02-26 21:32:00,
2013-02-26 15:37:00,60.7,43.4,29.64,SW,225,2.5,7.6,53,0.00,,,0.00,WUHU216HW,2013-02-26 21:37:00,
2013-02-26 15:42:00,60.7,43.4,29.64,SW,225,4.5,6.0,53,0.00,,,0.00,WUHU216HW,2013-02-26 21:42:00,
2013-02-26 15:47:00,60.5,43.2,29.64,SSW,203,9.2,9.2,53,0.00,,,0.00,WUHU216HW,2013-02-26 21:47:00,
2013-02-26 15:52:00,60.3,42.6,29.63,SSW,203,4.7,9.2,52,0.00,,,0.00,WUHU216HW,2013-02-26 21:52:00,
2013-02-26 15:57:00,60.1,42.9,29.63,SW,225,4.5,6.7,53,0.00,,,0.00,WUHU216HW,2013-02-26 21:57:00,
2013-02-26 16:02:00,59.9,42.3,29.64,WSW,248,6.5,6.5,52,0.00,,,0.00,WUHU216HW,2013-02-26 22:02:00,
2013-02-26 16:07:00,59.9,43.2,29.64,SW,225,4.0,6.5,54,0.00,,,0.00,WUHU216HW,2013-02-26 22:07:00,
2013-02-26 16:12:00,59.9,43.2,29.63,SW,225,2.9,5.4,54,0.00,,,0.00,WUHU216HW,2013-02-26 22:12:00,
2013-02-26 16:17:00,59.8,42.6,29.63,SW,225,3.4,5.4,53,0.00,,,0.00,WUHU216HW,2013-02-26 22:17:00,
2013-02-26 16:22:00,59.8,43.0,29.63,WSW,248,3.4,4.7,54,0.00,,,0.00,WUHU216HW,2013-02-26 22:22:00,
2013-02-26 16:27:00,59.8,43.0,29.63,SW,225,2.5,5.8,54,0.00,,,0.00,WUHU216HW,2013-02-26 22:27:00,
2013-02-26 16:32:00,59.8,42.6,29.64,SW,225,5.4,6.5,53,0.00,,,0.00,WUHU216HW,2013-02-26 22:32:00,
2013-02-26 16:37:00,59.6,42.8,29.64,South,180,1.8,6.5,54,0.00,,,0.00,WUHU216HW,2013-02-26 22:37:00,
2013-02-26 16:42:00,59.8,43.6,29.64,WSW,248,3.4,5.4,55,0.00,,,0.00,WUHU216HW,2013-02-26 22:42:00,
2013-02-26 16:47:00,59.6,43.4,29.65,SW,225,2.7,7.4,55,0.00,,,0.00,WUHU216HW,2013-02-26 22:47:00,
2013-02-26 16:52:00,59.4,43.2,29.64,SSW,203,2.2,7.4,55,0.00,,,0.00,WUHU216HW,2013-02-26 22:52:00,
2013-02-26 16:57:00,59.2,43.0,29.65,SW,225,4.0,4.9,55,0.00,,,0.00,WUHU216HW,2013-02-26 22:57:00,
2013-02-26 17:02:00,59.0,42.8,29.65,WSW,248,1.8,4.7,55,0.00,,,0.00,WUHU216HW,2013-02-26 23:02:00,
2013-02-26 17:07:00,59.0,43.3,29.64,SSW,203,2.2,4.7,56,0.00,,,0.00,WUHU216HW,2013-02-26 23:07:00,
2013-02-26 17:12:00,58.7,43.0,29.65,SSW,203,3.4,4.7,56,0.00,,,0.00,WUHU216HW,2013-02-26 23:12:00,
2013-02-26 17:17:00,58.7,43.5,29.65,SSW,203,2.7,5.4,57,0.00,,,0.00,WUHU216HW,2013-02-26 23:17:00,
2013-02-26 17:22:00,58.5,43.3,29.65,SW,225,3.4,5.4,57,0.00,,,0.00,WUHU216HW,2013-02-26 23:22:00,
2013-02-26 17:27:00,58.5,43.3,29.66,SW,225,2.2,5.6,57,0.00,,,0.00,WUHU216HW,2013-02-26 23:27:00,
2013-02-26 17:32:00,58.3,43.6,29.66,WSW,248,4.5,5.6,58,0.00,,,0.00,WUHU216HW,2013-02-26 23:32:00,
2013-02-26 17:37:00,58.0,43.3,29.66,SW,225,2.5,6.9,58,0.00,,,0.00,WUHU216HW,2013-02-26 23:37:00,
2013-02-26 17:42:00,57.8,43.1,29.66,SW,225,2.5,6.9,58,0.00,,,0.00,WUHU216HW,2013-02-26 23:42:00,
2013-02-26 17:47:00,57.4,42.8,29.67,SW,225,5.4,5.6,58,0.00,,,0.00,WUHU216HW,2013-02-26 23:47:00,
2013-02-26 17:52:00,57.2,42.7,29.67,SSW,203,2.9,6.3,58,0.00,,,0.00,WUHU216HW,2013-02-26 23:52:00,
2013-02-26 17:57:00,57.1,42.5,29.67,SW,225,4.3,6.3,58,0.00,,,0.00,WUHU216HW,2013-02-26 23:57:00,
2013-02-26 18:02:00,56.9,42.8,29.67,WSW,248,1.6,4.7,59,0.00,,,0.00,WUHU216HW,2013-02-27 00:02:00,
2013-02-26 18:07:00,56.5,42.8,29.67,WSW,248,2.5,4.9,60,0.00,,,0.00,WUHU216HW,2013-02-27 00:07:00,
2013-02-26 18:12:00,56.5,42.8,29.67,SW,225,2.7,4.9,60,0.00,,,0.00,WUHU216HW,2013-02-27 00:12:00,
2013-02-26 18:17:00,56.3,42.7,29.67,SSW,203,2.2,4.5,60,0.00,,,0.00,WUHU216HW,2013-02-27 00:17:00,
2013-02-26 18:22:00,56.2,42.9,29.67,SSW,203,1.8,2.7,61,0.00,,,0.00,WUHU216HW,2013-02-27 00:22:00,
2013-02-26 18:27:00,56.0,42.8,29.68,SW,225,1.6,2.7,61,0.00,,,0.00,WUHU216HW,2013-02-27 00:27:00,
2013-02-26 18:32:00,55.8,42.6,29.68,SSW,203,1.6,3.4,61,0.00,,,0.00,WUHU216HW,2013-02-27 00:32:00,
2013-02-26 18:37:00,55.8,42.9,29.68,SW,225,1.3,3.4,62,0.00,,,0.00,WUHU216HW,2013-02-27 00:37:00,
2013-02-26 18:42:00,55.6,42.8,29.69,SW,225,1.1,2.5,62,0.00,,,0.00,WUHU216HW,2013-02-27 00:42:00,
2013-02-26 18:47:00,55.6,42.8,29.69,SE,135,0.9,2.5,62,0.00,,,0.00,WUHU216HW,2013-02-27 00:47:00,
2013-02-26 18:52:00,55.4,42.6,29.70,SSW,203,1.3,2.5,62,0.00,,,0.00,WUHU216HW,2013-02-27 00:52:00,
2013-02-26 18:57:00,55.1,42.7,29.69,SW,225,0.4,2.2,63,0.00,,,0.00,WUHU216HW,2013-02-27 00:57:00,
2013-02-26 19:02:00,55.1,42.7,29.70,South,180,0.9,2.2,63,0.00,,,0.00,WUHU216HW,2013-02-27 01:02:00,
2013-02-26 19:07:00,54.9,42.5,29.70,SSW,203,0.2,1.6,63,0.00,,,0.00,WUHU216HW,2013-02-27 01:07:00,
2013-02-26 19:12:00,54.7,42.8,29.71,SSW,203,0.4,1.6,64,0.00,,,0.00,WUHU216HW,2013-02-27 01:12:00,
2013-02-26 19:16:00,54.5,42.6,29.70,SSW,203,0.2,1.8,64,0.00,,,0.00,WUHU216HW,2013-02-27 01:16:00,
2013-02-26 19:21:00,54.4,42.4,29.70,SSW,203,1.1,1.8,64,0.00,,,0.00,WUHU216HW,2013-02-27 01:21:00,
2013-02-26 19:26:00,54.2,42.7,29.71,SSE,158,0.4,1.1,65,0.00,,,0.00,WUHU216HW,2013-02-27 01:26:00,
2013-02-26 19:31:00,54.0,42.5,29.71,SSE,158,0.4,1.1,65,0.00,,,0.00,WUHU216HW,2013-02-27 01:31:00,
2013-02-26 19:36:00,54.0,42.5,29.71,SW,225,0.4,1.8,65,0.00,,,0.00,WUHU216HW,2013-02-27 01:36:00,
2013-02-26 19:42:00,53.8,42.7,29.71,SSW,203,0.0,1.8,66,0.00,,,0.00,WUHU216HW,2013-02-27 01:42:00,
2013-02-26 19:47:00,53.6,42.5,29.71,SSW,203,0.0,1.1,66,0.00,,,0.00,WUHU216HW,2013-02-27 01:47:00,
2013-02-26 19:52:00,53.6,42.5,29.71,SSW,203,0.7,1.1,66,0.00,,,0.00,WUHU216HW,2013-02-27 01:52:00,
2013-02-26 19:57:00,53.6,42.9,29.72,SSE,158,0.9,1.1,67,0.00,,,0.00,WUHU216HW,2013-02-27 01:57:00,
2013-02-26 20:02:00,53.6,42.9,29.72,SSE,158,0.2,1.1,67,0.00,,,0.00,WUHU216HW,2013-02-27 02:02:00,
2013-02-26 20:07:00,53.5,42.8,29.73,SSW,203,0.2,1.3,67,0.00,,,0.00,WUHU216HW,2013-02-27 02:07:00,
2013-02-26 20:12:00,53.5,43.1,29.73,South,180,0.4,1.6,68,0.00,,,0.00,WUHU216HW,2013-02-27 02:12:00,
2013-02-26 20:17:00,53.3,43.0,29.73,SSE,158,0.9,1.8,68,0.00,,,0.00,WUHU216HW,2013-02-27 02:17:00,
2013-02-26 20:22:00,53.3,43.4,29.73,SSW,203,0.0,1.8,69,0.00,,,0.00,WUHU216HW,2013-02-27 02:22:00,
2013-02-26 20:27:00,53.3,43.4,29.74,South,180,1.8,1.8,69,0.00,,,0.00,WUHU216HW,2013-02-27 02:27:00,
2013-02-26 20:32:00,53.3,43.4,29.74,SSE,158,0.7,1.8,69,0.00,,,0.00,WUHU216HW,2013-02-27 02:32:00,
2013-02-26 20:37:00,53.3,43.4,29.74,SSW,203,0.2,2.5,69,0.00,,,0.00,WUHU216HW,2013-02-27 02:37:00,
2013-02-26 20:42:00,53.3,43.7,29.74,SW,225,1.1,2.5,70,0.00,,,0.00,WUHU216HW,2013-02-27 02:42:00,
2013-02-26 20:47:00,53.1,43.7,29.74,SSE,158,0.9,2.0,70,0.00,,,0.00,WUHU216HW,2013-02-27 02:47:00,
2013-02-26 20:52:00,53.3,43.7,29.74,SSW,203,0.9,2.5,70,0.00,,,0.00,WUHU216HW,2013-02-27 02:52:00,
2013-02-26 20:57:00,53.3,43.7,29.75,South,180,0.4,2.5,70,0.00,,,0.00,WUHU216HW,2013-02-27 02:57:00,
2013-02-26 21:02:00,53.3,44.1,29.75,SW,225,1.1,2.0,71,0.00,,,0.00,WUHU216HW,2013-02-27 03:02:00,
2013-02-26 21:07:00,53.3,44.1,29.75,SE,135,0.9,2.0,71,0.00,,,0.00,WUHU216HW,2013-02-27 03:07:00,
2013-02-26 21:12:00,53.3,44.1,29.75,SSE,158,0.7,2.0,71,0.00,,,0.00,WUHU216HW,2013-02-27 03:12:00,
2013-02-26 21:17:00,53.3,44.1,29.75,SSE,158,0.4,1.3,71,0.00,,,0.00,WUHU216HW,2013-02-27 03:17:00,
2013-02-26 21:22:00,53.3,44.1,29.75,SSE,158,1.3,1.8,71,0.00,,,0.00,WUHU216HW,2013-02-27 03:22:00,
2013-02-26 21:27:00,53.3,44.1,29.75,SSE,158,0.7,1.8,71,0.00,,,0.00,WUHU216HW,2013-02-27 03:27:00,
2013-02-26 21:32:00,53.3,44.5,29.75,SSE,158,2.2,2.2,72,0.00,,,0.00,WUHU216HW,2013-02-27 03:32:00,
2013-02-26 21:37:00,53.1,44.0,29.76,SE,135,1.1,2.5,71,0.00,,,0.00,WUHU216HW,2013-02-27 03:37:00,
2013-02-26 21:42:00,53.1,44.3,29.76,SE,135,1.8,2.5,72,0.00,,,0.00,WUHU216HW,2013-02-27 03:42:00,
2013-02-26 21:47:00,52.9,44.2,29.75,SSE,158,1.8,3.6,72,0.00,,,0.00,WUHU216HW,2013-02-27 03:47:00,
2013-02-26 21:52:00,52.9,44.2,29.76,SE,135,1.1,3.6,72,0.00,,,0.00,WUHU216HW,2013-02-27 03:52:00,
2013-02-26 21:57:00,52.9,44.2,29.76,SSE,158,0.9,1.8,72,0.00,,,0.00,WUHU216HW,2013-02-27 03:57:00,
2013-02-26 22:02:00,52.9,44.2,29.77,SSE,158,1.6,2.5,72,0.00,,,0.00,WUHU216HW,2013-02-27 04:02:00,
2013-02-26 22:07:00,52.7,44.4,29.77,SSE,158,1.1,2.5,73,0.00,,,0.00,WUHU216HW,2013-02-27 04:07:00,
2013-02-26 22:12:00,52.7,44.4,29.77,SSE,158,0.9,2.0,73,0.00,,,0.00,WUHU216HW,2013-02-27 04:12:00,
2013-02-26 22:17:00,52.7,44.4,29.77,SSE,158,1.8,2.5,73,0.00,,,0.00,WUHU216HW,2013-02-27 04:17:00,
2013-02-26 22:22:00,52.6,44.2,29.78,SSE,158,0.7,2.5,73,0.00,,,0.00,WUHU216HW,2013-02-27 04:22:00,
2013-02-26 22:27:00,52.6,44.6,29.78,SSE,158,0.4,1.8,74,0.00,,,0.00,WUHU216HW,2013-02-27 04:27:00,
2013-02-26 22:32:00,52.6,44.6,29.78,SSW,203,1.1,1.8,74,0.00,,,0.00,WUHU216HW,2013-02-27 04:32:00,
2013-02-26 22:37:00,52.6,44.6,29.78,SSE,158,1.1,2.5,74,0.00,,,0.00,WUHU216HW,2013-02-27 04:37:00,
2013-02-26 22:42:00,52.6,44.6,29.78,SSW,203,0.7,2.5,74,0.00,,,0.00,WUHU216HW,2013-02-27 04:42:00,
2013-02-26 22:47:00,52.4,44.7,29.77,SSE,158,0.4,2.0,75,0.00,,,0.00,WUHU216HW,2013-02-27 04:47:00,
2013-02-26 22:52:00,52.4,44.7,29.78,SSW,203,0.7,1.6,75,0.00,,,0.00,WUHU216HW,2013-02-27 04:52:00,
2013-02-26 22:57:00,52.4,44.7,29.77,South,180,0.4,1.1,75,0.00,,,0.00,WUHU216HW,2013-02-27 04:57:00,
2013-02-26 23:00:00,52.4,44.7,29.77,SW,225,0.0,1.1,75,0.00,,,0.00,WUHU216HW,2013-02-27 05:00:00,
2013-02-26 23:05:00,52.4,44.7,29.77,SW,225,1.6,2.5,75,0.00,,,0.00,WUHU216HW,2013-02-27 05:05:00,
2013-02-26 23:10:00,52.2,44.9,29.78,South,180,0.7,2.5,76,0.00,,,0.00,WUHU216HW,2013-02-27 05:10:00,
2013-02-26 23:15:00,52.4,45.1,29.77,SE,135,1.1,2.5,76,0.00,,,0.00,WUHU216HW,2013-02-27 05:15:00,
2013-02-26 23:20:00,52.2,44.9,29.77,SSW,203,1.1,2.5,76,0.00,,,0.00,WUHU216HW,2013-02-27 05:20:00,
2013-02-26 23:25:00,52.2,45.2,29.77,SSW,203,0.7,2.2,77,0.00,,,0.00,WUHU216HW,2013-02-27 05:25:00,
2013-02-26 23:30:00,52.4,45.4,29.77,SSW,203,2.0,4.0,77,0.00,,,0.00,WUHU216HW,2013-02-27 05:30:00,
2013-02-26 23:35:00,52.4,45.4,29.78,South,180,0.0,4.0,77,0.00,,,0.00,WUHU216HW,2013-02-27 05:35:00,
2013-02-26 23:40:00,52.4,45.4,29.78,SSW,203,0.4,3.4,77,0.00,,,0.00,WUHU216HW,2013-02-27 05:40:00,
2013-02-26 23:45:00,52.4,45.4,29.78,SSE,158,1.1,3.4,77,0.00,,,0.00,WUHU216HW,2013-02-27 05:45:00,
2013-02-26 23:50:00,52.4,45.4,29.78,SSE,158,0.4,1.3,77,0.00,,,0.00,WUHU216HW,2013-02-27 05:50:00,
2013-02-26 23:55:00,52.4,45.4,29.78,SSE,158,0.4,1.3,77,0.00,,,0.00,WUHU216HW,2013-02-27 05:55:00,